TimeCDT,TemperatureF,Dew PointF,Humidity,Sea Level PressureIn,VisibilityMPH,Wind Direction,Wind SpeedMPH,Gust SpeedMPH,PrecipitationIn,Events,Conditions,WindDirDegrees,DateUTC
12:15 AM,76.8,76.8,100,30.01,10.0,Calm,Calm,-,N/A,,Clear,0,2013-08-02 05:15:00
12:35 AM,76.1,76.1,100,30.01,5.0,Calm,Calm,-,N/A,,Clear,0,2013-08-02 05:35:00
12:55 AM,75.6,75.6,100,30.01,5.0,Calm,Calm,-,N/A,,Clear,0,2013-08-02 05:55:00
1:15 AM,75.0,75.0,100,30.01,5.0,Calm,Calm,-,N/A,,Clear,0,2013-08-02 06:15:00
1:35 AM,75.6,75.6,100,30.00,5.0,Calm,Calm,-,N/A,,Clear,0,2013-08-02 06:35:00
1:55 AM,74.3,74.3,100,30.00,4.0,Calm,Calm,-,N/A,,Clear,0,2013-08-02 06:55:00
2:15 AM,75.6,75.6,100,29.99,7.0,Calm,Calm,-,N/A,,Clear,0,2013-08-02 07:15:00
2:35 AM,75.6,75.6,100,30.00,10.0,Calm,Calm,-,N/A,,Clear,0,2013-08-02 07:35:00
2:55 AM,74.1,74.1,100,30.00,7.0,Calm,Calm,-,N/A,,Clear,0,2013-08-02 07:55:00
3:15 AM,75.7,75.7,100,30.00,10.0,Calm,Calm,-,N/A,,Clear,0,2013-08-02 08:15:00
3:35 AM,75.9,75.9,100,30.00,10.0,Calm,Calm,-,N/A,,Clear,0,2013-08-02 08:35:00
3:55 AM,75.4,75.4,100,30.00,10.0,Calm,Calm,-,N/A,,Clear,0,2013-08-02 08:55:00
4:15 AM,75.0,75.0,100,30.01,10.0,Calm,Calm,-,N/A,,Clear,0,2013-08-02 09:15:00
4:35 AM,73.9,73.9,100,30.01,7.0,Calm,Calm,-,N/A,,Clear,0,2013-08-02 09:35:00
4:55 AM,73.9,73.9,100,30.01,7.0,Calm,Calm,-,N/A,,Clear,0,2013-08-02 09:55:00
5:15 AM,74.5,74.5,100,30.01,7.0,Calm,Calm,-,N/A,,Clear,0,2013-08-02 10:15:00
5:35 AM,74.5,74.5,100,30.01,7.0,Calm,Calm,-,N/A,,Clear,0,2013-08-02 10:35:00
5:55 AM,73.0,73.0,100,30.01,5.0,Calm,Calm,-,N/A,,Clear,0,2013-08-02 10:55:00
6:15 AM,73.2,73.2,100,30.01,7.0,Calm,Calm,-,N/A,,Clear,0,2013-08-02 11:15:00
6:35 AM,72.7,72.7,100,30.01,5.0,Calm,Calm,-,N/A,,Clear,0,2013-08-02 11:35:00
6:55 AM,73.8,73.8,100,30.01,5.0,Calm,Calm,-,N/A,,Clear,0,2013-08-02 11:55:00
7:15 AM,73.2,73.2,100,30.01,4.0,Calm,Calm,-,N/A,,Clear,0,2013-08-02 12:15:00
7:35 AM,74.8,74.8,100,30.02,5.0,Calm,Calm,-,N/A,,Clear,0,2013-08-02 12:35:00
7:55 AM,75.7,75.7,100,30.02,7.0,Calm,Calm,-,N/A,,Clear,0,2013-08-02 12:55:00
8:15 AM,76.6,76.1,98,30.03,7.0,Calm,Calm,-,N/A,,Clear,0,2013-08-02 13:15:00
8:35 AM,78.6,73.6,84,30.03,10.0,East,3.5,-,N/A,,Scattered Clouds,80,2013-08-02 13:35:00
8:55 AM,79.9,73.4,80,30.03,10.0,East,4.6,-,N/A,,Clear,90,2013-08-02 13:55:00
9:15 AM,81.7,73.2,75,30.04,10.0,SE,3.5,-,N/A,,Clear,130,2013-08-02 14:15:00
9:35 AM,83.3,72.7,70,30.03,10.0,SE,3.5,-,N/A,,Clear,140,2013-08-02 14:35:00
9:55 AM,84.6,73.2,69,30.02,10.0,South,3.5,-,N/A,,Clear,170,2013-08-02 14:55:00
10:15 AM,85.3,73.8,68,30.03,10.0,SSE,3.5,-,N/A,,Clear,160,2013-08-02 15:15:00
10:35 AM,86.9,74.8,67,30.03,10.0,SSE,5.8,-,N/A,,Clear,160,2013-08-02 15:35:00
10:55 AM,87.4,75.2,67,30.03,10.0,South,6.9,-,N/A,,Clear,180,2013-08-02 15:55:00
11:15 AM,88.5,75.0,64,30.03,10.0,SSE,4.6,-,N/A,,Clear,160,2013-08-02 16:15:00
11:35 AM,89.1,74.8,63,30.04,10.0,South,4.6,-,N/A,,Clear,190,2013-08-02 16:35:00
11:55 AM,90.0,74.1,59,30.04,10.0,South,3.5,-,N/A,,Clear,190,2013-08-02 16:55:00
12:15 PM,90.0,73.8,59,30.04,10.0,WSW,6.9,-,N/A,,Scattered Clouds,240,2013-08-02 17:15:00
12:35 PM,91.0,74.3,58,30.04,10.0,SSW,6.9,-,N/A,,Scattered Clouds,210,2013-08-02 17:35:00
12:55 PM,91.4,74.5,57,30.03,10.0,Calm,Calm,-,N/A,,Scattered Clouds,0,2013-08-02 17:55:00
1:15 PM,91.8,73.0,54,30.03,10.0,Calm,Calm,-,N/A,,Scattered Clouds,0,2013-08-02 18:15:00
1:35 PM,91.8,72.9,54,30.02,10.0,WNW,3.5,-,N/A,,Scattered Clouds,300,2013-08-02 18:35:00
1:55 PM,91.0,73.4,56,30.02,10.0,NW,3.5,-,N/A,,Mostly Cloudy,310,2013-08-02 18:55:00
2:15 PM,93.2,71.8,50,30.01,10.0,SSW,4.6,-,N/A,,Scattered Clouds,200,2013-08-02 19:15:00
2:35 PM,93.2,70.7,48,30.01,10.0,Calm,Calm,-,N/A,,Mostly Cloudy,0,2013-08-02 19:35:00
2:55 PM,93.4,70.0,46,30.00,10.0,Calm,Calm,-,N/A,,Scattered Clouds,0,2013-08-02 19:55:00
3:15 PM,93.2,70.2,47,30.00,10.0,Calm,Calm,-,N/A,,Mostly Cloudy,0,2013-08-02 20:15:00
3:35 PM,93.2,68.9,45,29.99,10.0,SW,4.6,-,N/A,,Scattered Clouds,220,2013-08-02 20:35:00
3:55 PM,93.7,69.1,44,29.99,10.0,Calm,Calm,-,N/A,,Clear,0,2013-08-02 20:55:00
4:15 PM,94.1,68.0,42,29.99,10.0,Calm,Calm,-,N/A,,Clear,0,2013-08-02 21:15:00
4:35 PM,92.7,69.3,46,29.98,10.0,SSE,3.5,-,N/A,,Clear,160,2013-08-02 21:35:00
4:55 PM,94.1,67.6,42,29.99,10.0,SSE,3.5,-,N/A,,Clear,150,2013-08-02 21:55:00
5:15 PM,94.3,67.6,42,29.98,10.0,Calm,Calm,-,N/A,,Clear,0,2013-08-02 22:15:00
5:35 PM,94.1,67.8,42,29.98,10.0,ENE,3.5,-,N/A,,Clear,70,2013-08-02 22:35:00
5:55 PM,93.0,69.8,47,29.98,10.0,Calm,Calm,-,N/A,,Clear,0,2013-08-02 22:55:00
6:15 PM,93.2,69.1,45,29.97,10.0,Calm,Calm,-,N/A,,Clear,0,2013-08-02 23:15:00
6:35 PM,92.8,69.8,47,29.97,10.0,Calm,Calm,-,N/A,,Clear,0,2013-08-02 23:35:00
6:55 PM,92.3,73.6,54,29.97,10.0,Calm,Calm,-,N/A,,Clear,0,2013-08-02 23:55:00
7:15 PM,87.3,80.2,80,29.98,10.0,Calm,Calm,-,N/A,,Clear,0,2013-08-03 00:15:00
7:35 PM,84.4,83.1,96,29.98,10.0,Calm,Calm,-,N/A,,Clear,0,2013-08-03 00:35:00
7:55 PM,83.3,83.3,100,29.98,10.0,Calm,Calm,-,N/A,,Clear,0,2013-08-03 00:55:00
8:15 PM,82.2,82.2,100,29.99,7.0,Calm,Calm,-,N/A,,Clear,0,2013-08-03 01:15:00
8:35 PM,81.5,81.5,100,29.99,7.0,Calm,Calm,-,N/A,,Clear,0,2013-08-03 01:35:00
8:55 PM,80.8,80.8,100,29.99,7.0,Calm,Calm,-,N/A,,Clear,0,2013-08-03 01:55:00
9:15 PM,80.6,80.6,100,30.00,7.0,Calm,Calm,-,N/A,,Clear,0,2013-08-03 02:15:00
9:35 PM,79.7,79.7,100,30.00,7.0,Calm,Calm,-,N/A,,Clear,0,2013-08-03 02:35:00
9:55 PM,79.0,79.0,100,30.01,7.0,Calm,Calm,-,N/A,,Clear,0,2013-08-03 02:55:00
10:15 PM,78.8,78.8,100,30.01,7.0,Calm,Calm,-,N/A,,Clear,0,2013-08-03 03:15:00
10:35 PM,78.3,78.3,100,30.01,7.0,Calm,Calm,-,N/A,,Clear,0,2013-08-03 03:35:00
10:55 PM,77.9,77.9,100,30.01,5.0,Calm,Calm,-,N/A,,Clear,0,2013-08-03 03:55:00
11:15 PM,77.5,77.5,100,30.01,7.0,SE,3.5,-,N/A,,Clear,140,2013-08-03 04:15:00
11:35 PM,77.9,77.9,100,30.01,10.0,SSE,3.5,-,N/A,,Clear,150,2013-08-03 04:35:00
11:55 PM,81.0,76.5,86,30.01,10.0,SE,3.5,-,N/A,,Clear,140,2013-08-03 04:55:00